Location: Charlotte
(35.2270°N, 80.8430°W)
Time: 13:34:03
(UTC-04:00)

Daily predictions for brighter satellites

Satellite Brightness Start Highest point End
(mag) Time Altitude Azimuth Time Altitude Azimuth Time Altitude Azimuth
GEOS 3 Rocket 3.8 20:47:35 10° SE 20:52:49 69° NE 20:58:02 10° NNW
Okean 1 4.0 20:52:13 10° SSW 20:56:14 60° W 21:00:16 10° N
Cosmos 2219 Rocket 3.2 20:51:59 10° SW 20:57:31 54° WNW 21:03:02 10° NNE
Lacrosse 5 rocket 1.1 20:57:07 10° SW 21:00:53 86° SE 21:04:52 10° NE
SL-16 R/B 2.5 20:56:27 10° S 21:01:45 43° ESE 21:07:04 10° NE
Cosmos 2058 Rocket 4.3 21:00:18 10° NNE 21:03:50 23° ENE 21:07:20 10° SE
OAO 3 Copernicus 4.3 20:58:52 10° W 21:03:57 88° S 21:08:59 10° E
Meteor 1-13 Rocket 4.3 21:00:09 10° S 21:05:59 80° E 21:11:44 10° N
Okean 2 4.3 21:08:04 10° SSE 21:11:44 30° E 21:15:24 10° NNE
deb Chang Zheng 4 3.8 21:07:54 10° NNE 21:12:10 48° E 21:16:23 10° S
Aureole 2 Rocket 4.0 21:09:17 10° SSE 21:12:25 21° ESE 21:15:23 10° NE
Cosmos 1500 3.2 21:09:40 10° N 21:13:34 80° E 21:17:26 10° S
Cosmos 494 Rocket 4.2 21:12:24 10° S 21:17:16 46° ESE 21:22:09 10° NNE
Cosmos 1743 2.9 21:17:41 10° N 21:21:27 53° E 21:25:01 11° SSE
SJ-11-01 4.4 21:21:44 10° SSE 21:26:18 59° ENE 21:30:54 10° N
Meteor 1-19 Rocket 4.2 21:24:42 10° S 21:30:21 89° E 21:35:59 10° N
Cosmos 1606 Rocket 3.5 21:26:37 10° N 21:31:05 81° E 21:35:28 10° S
PSLV R/B 4.0 21:28:58 10° SW 21:32:12 35° SSE 21:34:54 14° E
CZ-4 DEB 4.3 21:30:48 10° SSW 21:33:48 35° W 21:36:48 10° NNW
H-2A R/B 2.0 21:31:19 13° SSE 21:34:58 69° ENE 21:39:16 10° N
Meteor 2-4 Rocket 3.8 21:30:09 10° S 21:35:55 72° E 21:41:49 10° NNE
BREEZE-M R/B 4.5 21:34:04 10° W 21:37:02 28° SW 21:41:27 12° SSE
CZ-2C R/B 1.1 21:36:01 16° S 21:37:41 52° W 21:39:59 10° NNW
Cosmos 1331 Rocket 4.1 21:35:17 10° N 21:40:26 61° ENE 21:44:03 19° SSE
Cosmos 2333 Rocket 4.2 21:35:31 10° SW 21:40:32 32° WNW 21:45:34 10° N
SPOT 5 3.4 21:38:18 20° SE 21:40:53 37° ENE 21:44:54 10° N
Cosmos 1626 Rocket 4.2 21:41:51 20° SSE 21:44:24 37° E 21:48:29 10° NNE
Cosmos 2297 3.7 21:41:52 10° NNW 21:47:35 76° ENE 21:51:38 20° SSE
CZ-4 SHROUD 3.6 21:49:26 33° SE 21:50:25 45° ENE 21:53:28 10° N
APEX 4.3 21:51:04 10° N 21:54:59 40° ENE 21:57:11 26° ESE
USA 186 4.5 21:53:32 10° SW 21:55:20 15° W 21:57:05 10° WNW
SeaSat 1 2.6 21:53:09 24° SE 21:56:01 62° ENE 22:00:55 10° NNW
ATLAS CENTAUR R/B 4.0 21:52:18 10° WSW 21:56:33 28° NW 22:00:55 10° N
CZ-4B R/B 3.7 21:56:24 10° NNE 22:01:20 50° E 22:04:21 23° SSE
Cosmos 2228 3.0 22:01:20 10° N 22:05:46 81° E 22:07:57 29° SSE
Tsikada Rocket 4.0 22:07:06 17° S 22:12:14 71° E 22:18:36 10° N
YAOGAN 6 3.2 22:13:00 39° E 22:13:21 40° ENE 22:16:53 10° N
BREEZE-M DEB (TANK) 2.0 22:11:12 10° NW 22:13:12 61° NNW 22:13:12 61° NNW
Terra 3.8 22:13:07 14° ENE 22:13:48 14° ENE 22:16:15 10° NE
Atlas Centaur 2 3.3 22:07:53 10° SW 22:15:20 46° SSE 22:20:37 22° ESE
OTV 4 2.9 22:14:19 10° WSW 22:15:32 14° SW 22:15:32 14° SW
COSMOS 2455 3.0 22:13:21 20° S 22:17:22 50° ESE 22:23:09 10° NE
Cosmos 1513 Rocket 4.5 22:12:40 10° N 22:18:59 84° W 22:23:03 23° S
ATLAS 3B R/B 3.6 22:18:09 29° SE 22:19:35 31° ESE 22:26:03 10° NE
Envisat 3.2 22:16:49 25° S 22:19:48 70° WSW 22:24:53 10° NNW
MetOp-A 4.1 22:17:21 33° SSE 22:19:50 76° ENE 22:25:12 10° N
ERS-1 Rocket 4.5 22:17:06 10° SSW 22:21:32 32° W 22:26:02 10° NW
Cosmos 1939 Rocket 3.9 22:19:32 21° SSW 22:21:58 43° W 22:25:57 10° NNW
Meteor 1-15 Rocket 4.4 22:17:45 10° NNW 22:23:18 69° W 22:26:46 24° S
Cosmos 2285 Rocket 4.3 22:19:37 10° NNW 22:25:51 65° WSW 22:29:39 25° S
Cosmos 2278 Rocket 4.2 22:25:29 10° NW 22:29:42 22° W 22:33:53 10° SSW
PSLV R/B 4.3 22:30:19 36° WSW 22:30:39 37° W 22:33:33 10° NNW
USA 234 3.3 22:27:51 33° ESE 22:31:02 75° NE 22:37:36 10° NW
Cosmos 2369 Rocket 3.3 22:40:21 10° N 22:45:12 28° ENE 22:46:13 27° ENE
OAO 3 Copernicus 4.1 22:43:27 10° W 22:48:29 72° SSW 22:48:52 68° SSE
ARGOS 3.1 22:48:12 55° SSE 22:49:26 80° ENE 22:54:52 10° N
Abrixas rocket 3.2 22:46:11 10° NW 22:48:52 47° NNW 22:48:52 47° NNW
H-2A R/B 2.7 22:50:30 36° ENE 22:50:38 36° ENE 22:55:11 10° N
NOAA 11 4.1 22:52:09 58° SSE 22:53:12 79° ENE 22:58:39 10° N
Cosmos 1825 Rocket 3.5 22:54:01 73° ENE 22:54:01 73° ENE 22:58:15 10° N
SPOT 1/Viking Rocket 3.8 22:57:45 49° SSW 22:58:57 64° WSW 23:04:04 10° NNW
Cosmos 1634 Rocket 3.9 22:54:54 10° N 23:01:04 72° E 23:02:12 58° SE
Cosmos 1812 Rocket 4.2 22:57:29 10° NNW 23:01:43 49° W 23:02:13 46° WSW
Cosmos 1992 Rocket 4.1 22:58:10 10° N 23:03:21 60° ENE 23:03:30 60° E
Cosmos 1461 3.2 22:59:57 10° NW 23:03:39 60° WNW 23:03:39 60° WNW
DMSP B5D2-2 4.3 23:02:18 10° NNE 23:07:02 54° ENE 23:07:02 54° ENE
Cosmos 1346 Rocket 4.0 23:10:08 35° NNE 23:10:08 35° NNE 23:12:30 10° NNE
Cosmos 1066 Rocket 4.2 23:11:09 58° SSW 23:12:17 80° W 23:18:03 10° N
Cosmos 1190 Rocket 3.9 23:14:26 83° E 23:14:26 83° E 23:19:44 10° NNE
Cosmos 489 Rocket 4.3 23:20:42 70° SSE 23:21:18 76° ESE 23:27:40 10° NNE
Milstar 3 Cent rocket 4.3 23:18:45 10° WSW 23:19:51 13° SW 23:19:51 13° SW
Meteor 1-21 4.1 23:26:42 78° E 23:26:42 78° E 23:32:27 10° N
Spot 4 4.3 23:27:26 56° NNE 23:27:26 56° NNE 23:31:24 10° N
Cosmos 2279 Rocket 3.9 23:21:50 10° N 23:28:04 68° E 23:28:18 67° E
Cosmos 676 Rocket 4.5 23:31:29 52° NE 23:31:29 52° NE 23:35:39 10° NNE
Landsat 7 4.4 23:35:43 51° WNW 23:35:43 51° WNW 23:39:55 10° NNW
Cosmos 1943 3.8 23:39:29 41° WSW 23:40:57 52° WNW 23:46:30 10° N
Cosmos 2180 Rocket 4.4 23:35:16 10° N 23:41:32 73° E 23:41:32 73° E
Terra 2.7 23:52:00 45° WNW 23:52:00 45° WNW 23:55:42 10° NNW
